[[{"header":{"parameterUnit":"m.s-1","parameterCategory":1,"la1":30.2991,"la2":30.254,"lo1":-89.0895,"lo2":-89.0444,"dy":0.0017,"dx":0.0017,"nx":28,"ny":28,"refTime":"2025-03-29T21:00:00:Z","depth":0,"parameterNumber":2,"parameterNumberName":"U-component_of_WINDS"},"data":[0,0,0,0,0,0,0,0,0,0,0,0,0,0,0,0,0,0,0,0,0,0,0,0,0,0,0,0,0,0,0,0,0,0,0,0,0,0,0,0,0,0,0,0,0,0,0,0,0,0,0,0,0,0,0,0,0,0,-1.5909,-1.591,0,-1.6044,-1.6046,-1.6047,-1.6098,-1.6098,-1.6098,-1.6097,-1.6237,-1.6241,-1.6245,0,0,0,0,0,0,0,0,0,0,0,0,0,-1.5694,-1.5697,-1.5909,-1.591,-1.5912,-1.6044,-1.6046,-1.6048,-1.6098,-1.6098,-1.6097,-1.6097,-1.6235,-1.624,-1.6245,0,0,0,0,0,0,0,0,0,0,0,0,0,-1.5804,-1.5699,-1.5908,-1.5953,-1.5959,-1.6044,-1.6046,-1.6048,-1.6099,-1.6098,-1.6097,-1.6097,-1.6234,-1.624,-1.6246,-1.6296,0,0,-1.6265,-1.6267,0,0,0,0,0,0,0,0,-1.5798,-1.5812,-1.5945,-1.595,-1.5956,-1.6054,-1.6021,-1.6132,-1.6099,-1.6045,-1.6097,-1.6096,-1.6176,-1.6187,-1.6214,-1.6303,-1.6309,-1.6265,-1.6269,-1.6272,-1.6273,0,0,0,0,0,0,0,-1.579,-1.5806,-1.5962,-1.5947,-1.5954,-1.5967,-1.5982,-1.6042,-1.6113,-1.605,-1.6054,-1.6069,-1.6179,-1.6208,-1.6218,-1.6311,-1.6265,-1.627,-1.6274,-1.6277,-1.6447,-1.6448,0,0,0,0,0,0,-1.5775,-1.5799,-1.5958,-1.5966,-1.5874,-1.5971,-1.5988,-1.6023,-1.6112,-1.6125,-1.607,-1.6071,-1.6198,-1.621,-1.6223,-1.6287,-1.6271,-1.6277,-1.6281,-1.6447,-1.6448,-1.6449,0,0,0,0,0,0,-1.577,-1.5788,-1.5953,-1.5884,-1.5906,-1.5975,-1.6015,-1.6026,-1.6055,-1.6127,-1.614,-1.6086,-1.6198,-1.6214,-1.6278,-1.6293,-1.628,-1.6286,-1.6446,-1.6447,-1.6448,-1.6417,0,0,0,0,0,0,-1.5764,-1.5786,-1.5806,-1.5884,-1.5909,-1.6005,-1.6016,-1.6029,-1.6065,-1.6068,-1.6146,-1.6158,-1.6199,-1.6268,-1.6284,-1.6301,-1.629,-1.6445,-1.6446,-1.6448,-1.6417,-1.6417,-1.6417,0,0,0,0,0,-1.5756,-1.5792,-1.5807,-1.5826,-1.5936,-1.6006,-1.602,-1.6066,-1.6066,-1.6087,-1.6133,-1.6156,-1.6289,-1.6274,-1.6292,-1.6312,-1.6444,-1.6446,-1.6448,-1.6417,-1.6417,-1.6417,0,0,0,0,0,0,-1.5715,-1.5804,-1.5821,-1.5884,-1.5937,-1.6014,-1.6041,-1.6065,-1.6119,-1.6119,-1.6174,-1.6191,-1.625,-1.6287,-1.6269,-1.6365,-1.6368,-1.6373,-1.6338,-1.6339,-1.6339,-1.6328,-1.6296,0,0,0,0,0,-1.5713,-1.5763,-1.5837,-1.5886,-1.5911,-1.5972,-1.6004,-1.6034,-1.6091,-1.6114,-1.6165,-1.622,-1.6274,-1.6309,-1.6363,-1.6423,-1.644,-1.6445,-1.6445,-1.6445,-1.6449,-1.6482,-1.6485,-1.6455,-1.6455,-1.6455,0,0,-1.5711,-1.5765,-1.5793,-1.5879,-1.5924,-1.5973,-1.599,-1.6042,-1.6079,-1.6122,-1.6185,-1.6224,-1.6289,-1.635,-1.638,-1.6384,-1.6461,-1.6447,-1.6446,-1.6451,-1.6485,-1.6487,-1.649,-1.6456,-1.6456,-1.6456,0,0,-1.5731,-1.5777,-1.5822,-1.5866,-1.5933,-1.5973,-1.5983,-1.6058,-1.6085,-1.6149,-1.6182,-1.6227,-1.6319,-1.6364,-1.6398,-1.6434,-1.6457,-1.645,-1.645,-1.6483,-1.6485,-1.6487,-1.65,-1.6503,-1.6454,-1.6454,-1.6454,0,-1.5719,-1.5794,-1.5842,-1.5892,-1.5929,-1.5969,-1.6015,-1.6056,-1.6137,-1.6161,-1.6164,-1.628,-1.6327,-1.6399,-1.6407,-1.6434,-1.6448,-1.6441,-1.6481,-1.6484,-1.6487,-1.6499,-1.6503,-1.6453,-1.6453,-1.6453,-1.6453,0,-1.5776,-1.5828,-1.5856,-1.5933,-1.5973,-1.6021,-1.6075,-1.611,-1.6137,-1.6176,-1.624,-1.6297,-1.6363,-1.6383,-1.641,-1.6459,-1.6458,-1.647,-1.6474,-1.6487,-1.65,-1.6505,-1.6451,-1.6451,-1.6452,-1.6452,0,0,-1.5774,-1.5876,-1.5886,-1.5921,-1.5997,-1.6039,-1.6088,-1.6152,-1.618,-1.6235,-1.6277,-1.6354,-1.6365,-1.6404,-1.6437,-1.6465,-1.6489,-1.6474,-1.6476,-1.6474,-1.6546,-1.6536,-1.654,-1.6504,-1.6506,-1.6506,-1.654,0,-1.5804,-1.5893,-1.5937,-1.6007,-1.6056,-1.6095,-1.6137,-1.6189,-1.6227,-1.6274,-1.6316,-1.6369,-1.638,-1.6404,-1.6434,-1.648,-1.6504,-1.6478,-1.6544,-1.6546,-1.6526,-1.6547,-1.6537,-1.6566,-1.6545,-1.6546,-1.6547,0,-1.585,-1.5904,-1.5978,-1.6049,-1.6071,-1.6108,-1.617,-1.6214,-1.6273,-1.6299,-1.6342,-1.6374,-1.6427,-1.6427,-1.6501,-1.6482,-1.6512,-1.6538,-1.654,-1.6548,-1.6547,-1.6554,-1.6576,-1.658,-1.6555,-1.6554,-1.6554,0,-1.584,-1.5931,-1.5988,-1.6016,-1.61,-1.6125,-1.6161,-1.622,-1.6255,-1.6309,-1.6333,-1.6392,-1.6425,-1.647,-1.6517,-1.6513,-1.6586,-1.659,-1.6609,-1.6607,-1.6622,-1.662,-1.6648,-1.6642,-1.6642,-1.6642,-1.6642,0,-1.5869,-1.5912,-1.5984,-1.6019,-1.6069,-1.6119,-1.6168,-1.6207,-1.6258,-1.6301,-1.6339,-1.6378,-1.6438,-1.6484,-1.6521,-1.6576,-1.6591,-1.6613,-1.6622,-1.6609,-1.6606,-1.6629,-1.6628,-1.6643,-1.6643,-1.6642,-1.6642,0,-1.5866,-1.5916,-1.5979,-1.6053,-1.6072,-1.6106,-1.6169,-1.6204,-1.6244,-1.6297,-1.6313,-1.6375,-1.6432,-1.6483,-1.6559,-1.6584,-1.664,-1.6652,-1.662,-1.6625,-1.664,-1.6637,-1.6683,-1.6691,-1.6679,-1.6679,-1.6679,0,-1.588,-1.5915,-1.5992,-1.6023,-1.6058,-1.6107,-1.6143,-1.6194,-1.623,-1.63,-1.6326,-1.6386,-1.6436,-1.6525,-1.6578,-1.6636,-1.6649,-1.6661,-1.6658,-1.6644,-1.6648,-1.6645,-1.6649,-1.666,-1.666,-1.666,-1.666,0,-1.59,-1.5923,-1.5973,-1.6031,-1.6073,-1.6122,-1.6172,-1.6195,-1.6255,-1.6294,-1.6352,-1.6391,-1.6468,-1.6527,-1.659,-1.6628,-1.6654,-1.666,-1.6668,-1.6655,-1.6634,-1.6645,-1.6618,-1.6659,-1.6659,-1.6659,-1.6659,-1.6659,-1.5906,-1.5938,-1.5997,-1.6051,-1.6094,-1.614,-1.6176,-1.622,-1.6269,-1.6335,-1.6362,-1.6421,-1.648,-1.6568,-1.6605,-1.6652,-1.6657,-1.6668,-1.667,-1.6672,-1.6669,-1.6627,-1.6664,-1.6664,-1.6664,-1.6664,-1.6665,0,-1.5927,-1.5966,-1.6016,-1.6084,-1.6127,-1.6147,-1.6203,-1.6238,-1.6289,-1.6341,-1.6389,-1.6456,-1.6513,-1.657,-1.663,-1.6656,-1.667,-1.667,-1.6669,-1.6677,-1.6662,-1.6649,-1.6659,-1.6659,-1.6659,-1.6659,-1.6659,-1.6659,-1.5943,-1.5998,-1.6027,-1.6104,-1.6144,-1.6201,-1.6232,-1.6274,-1.6315,-1.6388,-1.6435,-1.6472,-1.6525,-1.6589,-1.6642,-1.6658,-1.6678,-1.6675,-1.6693,-1.6678,-1.6678,-1.6678,-1.6666,-1.6679,-1.6679,-1.6705,-1.6705,-1.6705]},{"header":{"parameterUnit":"m.s-1","parameterCategory":1,"la1":30.2991,"la2":30.254,"lo1":-89.0895,"lo2":-89.0444,"dy":0.0017,"dx":0.0017,"nx":28,"ny":28,"refTime":"2025-03-29T21:00:00:Z","depth":0,"parameterNumber":3,"parameterNumberName":"V-component_of_WINDS"},"data":[0,0,0,0,0,0,0,0,0,0,0,0,0,0,0,0,0,0,0,0,0,0,0,0,0,0,0,0,0,0,0,0,0,0,0,0,0,0,0,0,0,0,0,0,0,0,0,0,0,0,0,0,0,0,0,0,0,0,4.6577,4.6578,0,4.6625,4.6625,4.6626,4.6633,4.6632,4.6632,4.6631,4.6674,4.6676,4.6677,0,0,0,0,0,0,0,0,0,0,0,0,0,4.649,4.6491,4.6577,4.6578,4.6578,4.6625,4.6625,4.6626,4.6633,4.6632,4.6632,4.6631,4.6674,4.6676,4.6677,0,0,0,0,0,0,0,0,0,0,0,0,0,4.6531,4.6492,4.6577,4.6587,4.6589,4.6625,4.6625,4.6626,4.6633,4.6632,4.6632,4.6631,4.6673,4.6675,4.6678,4.6705,0,0,4.6685,4.6686,0,0,0,0,0,0,0,0,4.6529,4.6534,4.6585,4.6587,4.6588,4.6622,4.661,4.6652,4.6633,4.6616,4.6631,4.6631,4.6657,4.6661,4.6671,4.6707,4.6708,4.6685,4.6686,4.6687,4.6688,0,0,0,0,0,0,0,4.6526,4.6532,4.6596,4.6586,4.6588,4.6589,4.6594,4.6618,4.6639,4.6617,4.6618,4.6624,4.6658,4.6669,4.6672,4.6709,4.6685,4.6687,4.6688,4.6689,4.6774,4.6775,0,0,0,0,0,0,4.6522,4.653,4.6594,4.6597,4.6557,4.6591,4.6597,4.6612,4.6639,4.6643,4.6624,4.6624,4.6665,4.6669,4.6673,4.671,4.6687,4.669,4.6691,4.6773,4.6774,4.6775,0,0,0,0,0,0,4.652,4.6527,4.6592,4.6564,4.6572,4.6593,4.661,4.6613,4.6624,4.6645,4.6648,4.6632,4.6665,4.667,4.6698,4.6711,4.6691,4.6693,4.6772,4.6773,4.6775,4.6781,0,0,0,0,0,0,4.6517,4.6527,4.6537,4.6564,4.6574,4.6617,4.6611,4.6615,4.6629,4.6629,4.6652,4.6655,4.6665,4.6695,4.6701,4.6714,4.6694,4.6771,4.6773,4.6774,4.678,4.6782,4.6785,0,0,0,0,0,4.6514,4.6535,4.6538,4.6545,4.6588,4.6618,4.6623,4.6635,4.663,4.6641,4.6655,4.6655,4.6709,4.6698,4.6704,4.6719,4.677,4.6772,4.6774,4.6779,4.6782,4.6785,0,0,0,0,0,0,4.6505,4.6538,4.6542,4.6572,4.6593,4.6619,4.6632,4.6637,4.6657,4.6656,4.6668,4.6674,4.6702,4.6713,4.67,4.6748,4.6739,4.6742,4.674,4.6744,4.6746,4.6743,4.6696,0,0,0,0,0,4.6507,4.653,4.6557,4.6581,4.6592,4.6611,4.6624,4.6632,4.6653,4.6661,4.6676,4.6695,4.6717,4.6731,4.6751,4.6782,4.6788,4.6795,4.6797,4.6799,4.6802,4.6823,4.6827,4.6782,4.6782,4.6782,0,0,4.651,4.6531,4.6544,4.658,4.6597,4.662,4.6617,4.6641,4.6659,4.6663,4.6692,4.6705,4.6727,4.6758,4.6771,4.6767,4.6816,4.6802,4.6803,4.6805,4.6825,4.6829,4.6833,4.6783,4.6783,4.6782,0,0,4.6529,4.6546,4.657,4.6589,4.6616,4.6629,4.6635,4.6662,4.6672,4.6702,4.6707,4.6728,4.6764,4.6781,4.6794,4.6826,4.6827,4.6832,4.6844,4.6864,4.6868,4.6871,4.6885,4.6889,4.6834,4.6834,4.6834,0,4.6528,4.6566,4.6581,4.6607,4.6624,4.6633,4.6658,4.6674,4.6705,4.6717,4.6712,4.6762,4.6776,4.6813,4.6821,4.6831,4.6839,4.6829,4.6866,4.687,4.6873,4.6886,4.6891,4.6835,4.6835,4.6835,4.6835,0,4.6566,4.6592,4.6608,4.6643,4.6661,4.6685,4.6705,4.6722,4.6729,4.6743,4.6776,4.6795,4.6822,4.6831,4.6836,4.6869,4.6867,4.6864,4.6855,4.6878,4.689,4.6895,4.6836,4.6835,4.6835,4.6835,0,0,4.6576,4.6624,4.6629,4.6648,4.6681,4.6701,4.6727,4.6757,4.6772,4.6794,4.6817,4.6851,4.685,4.6866,4.6874,4.6891,4.6918,4.6887,4.6888,4.6894,4.6959,4.6962,4.6967,4.692,4.6921,4.6922,4.6958,0,4.66,4.665,4.6667,4.6708,4.6734,4.6746,4.677,4.6792,4.6807,4.6831,4.6846,4.6871,4.6867,4.6877,4.6895,4.6911,4.6932,4.6909,4.6942,4.6943,4.6938,4.6973,4.6975,4.7008,4.6963,4.6964,4.6964,0,4.6633,4.6661,4.6706,4.6741,4.6752,4.6773,4.6805,4.6827,4.6854,4.6864,4.6884,4.6892,4.6921,4.6911,4.6952,4.6936,4.6951,4.6961,4.6963,4.6967,4.6955,4.698,4.7019,4.7024,4.6971,4.6971,4.697,0,4.6639,4.6688,4.6722,4.6737,4.6778,4.6793,4.681,4.6837,4.6856,4.6882,4.6895,4.6923,4.6939,4.696,4.6977,4.6967,4.7017,4.7007,4.7026,4.7026,4.7036,4.7035,4.7079,4.7044,4.7043,4.7043,4.7043,0,4.6664,4.6692,4.6727,4.6747,4.678,4.68,4.6831,4.6849,4.6874,4.6899,4.6909,4.6932,4.6952,4.6977,4.699,4.7023,4.7029,4.7039,4.7042,4.7038,4.7038,4.7048,4.7047,4.7045,4.7044,4.7044,4.7044,0,4.6676,4.67,4.6739,4.6777,4.6787,4.6809,4.6841,4.6863,4.688,4.6912,4.692,4.6947,4.6978,4.6997,4.7035,4.7044,4.7082,4.7083,4.7073,4.7075,4.7094,4.7093,4.7147,4.7157,4.7113,4.7114,4.7114,0,4.669,4.6713,4.6755,4.6775,4.6794,4.6823,4.6844,4.6866,4.6887,4.6923,4.694,4.6973,4.7001,4.705,4.7072,4.7102,4.7105,4.7123,4.7109,4.7107,4.7108,4.7107,4.7111,4.7124,4.7125,4.7125,4.7125,0,4.6715,4.6727,4.6758,4.6794,4.682,4.6848,4.6876,4.6891,4.6918,4.6941,4.6976,4.6997,4.704,4.7073,4.7106,4.7123,4.7129,4.713,4.7136,4.7133,4.7128,4.7134,4.7081,4.7128,4.7128,4.7128,4.7127,4.7127,4.6729,4.6752,4.6787,4.6822,4.6847,4.6875,4.6899,4.6921,4.6951,4.699,4.7001,4.7037,4.7068,4.7114,4.7132,4.7161,4.7158,4.7166,4.7169,4.7171,4.7173,4.7123,4.7166,4.7166,4.7166,4.7166,4.7166,0,4.6756,4.6781,4.6813,4.6856,4.6884,4.6892,4.6925,4.6947,4.6981,4.701,4.7039,4.708,4.7114,4.714,4.7175,4.7193,4.7197,4.7201,4.7201,4.7205,4.7172,4.7164,4.7198,4.7198,4.7198,4.7198,4.7198,4.7198,4.6773,4.6813,4.6831,4.6884,4.6908,4.6947,4.6966,4.6992,4.7017,4.7064,4.7093,4.7112,4.7141,4.7179,4.721,4.7217,4.723,4.7234,4.7242,4.721,4.7207,4.7203,4.7196,4.7236,4.7236,4.7273,4.7273,4.7273]}]]